Погода в Конопляном

Украина / Одесская область     47°03′02″N   30°28′41″E
темп.,
°C
ветер,
м/с
пор.,
м/с
влажн.,
%
обл.,
%
осадки,
мм/ч
давл.,
гПа
погр.,
м
28 ноября, вс
вс2823:00+8юз48810 0.0 1005139
02:00+7юз22790 0.0 100521
05:00+7ююв22830 0.0 100517
08:00+7юв3481100 0.0 100457
11:00+12юв51080100 0.0 1003423
14:00+15ююв5117686 0.4 1002781
17:00+10юв479616 0.0 1002147
20:00+10ю4795100 0.0 1002314
29 ноября, пн
пн2923:00+10ююв4895100 0.0 1001209
02:00+9юв4996100 0.0 1000200
05:00+10ююв7149162 0.0 997505
08:00+12ю81592100 0.0 995609
11:00+13ю91684100 0.8 992819
14:00+14ююз8158070 1.4 988829
17:00+14зюз8147641 2.3 987702
20:00+7зсз111875100 2.5 994964
30 ноября, вт
вт3023:00+5зсз81772100 0.0 997689
02:00+4з5127224 0.0 1001609
05:00+2юз368152 0.0 1003144
08:00+2зсз4878100 0.0 1004258
11:00+4сз61155100 0.0 1003634
14:00+5ссз6952100 0.0 1002859
17:00+4сз71162100 0.0 1003895
20:00+2сз7146598 0.0 1003736
1 декабря, ср
ср123:000з49720 0.0 1005259
02:000юз5117418 0.0 1005283
05:00+2юз81660100 0.0 1004560
08:00+2зюз81656100 0.0 1004611
11:00+5з8144988 0.0 10051215
14:00+7зсз9145293 0.0 10051718
17:00+4зсз5106499 0.0 1008287
20:00+2зюз337151 0.0 100940
2 декабря, чт
чт223:00+2ююз37695 0.0 1009114
02:00+2ююз512735 0.0 1009258
05:00+2ююз514775 0.0 1009280
08:00+3ююз5138244 0.0 1008278
11:00+8юз610595 0.0 1008387
14:00+10юз610475 0.0 1007654
17:00+7ююз4861100 0.0 1008149
20:00+5ю486933 0.0 1008142